Terminal Aerodrome Forecast
Issued by NWS Memphis, TN

Home | Current Version | Previous Version | Text Only | Print | Product List | Glossary On
Versions: 1 2 3 4 5 6 7 8 9 10 11 12
000
FTUS44 KMEG 222300
TAFJBR
TAF
KJBR 222330Z 2300/2324 21005KT P6SM SKC
     FM231100 26002KT 5SM BR SKC
     FM231300 24005KT P6SM SKC
     FM231800 25005KT P6SM SCT050=

USA.gov is the U.S. government's official web portal to all federal, state and local government web resources and services.